x

Norfolk, Va (44059) Weather Station

9:40am - Mon 25th May 2015 All times are EDT. -4 hours from GMT.

  • Wind
    9mph, 13mph gusts
  • Air Temp 73°f
  • Sea Pressure 1026.9mb
  • Norfolk, Va
  • Norfolk, Va

More Historic Weather Station data

Upgrade to MSW Pro to gain access to the past 30 days of data for over 8000 Wavebouys and Weather Stations around the globe.

Join Pro

Comparision Forecast

View Surf forecast
   
Mon 05/25 9:40am 9 13 mph 1026.9mb - 73f
9:30am 9 13 mph 1026.9mb - 72f
9:20am 9 16 mph 1026.9mb - 72f
9:10am 9 11 mph 1026.9mb - 71f
9:00am 9 13 mph 1026.9mb 71f 71f
8:50am 7 9 mph 1026.9mb - 71f
8:40am 9 13 mph 1026.8mb - 70f
8:30am 7 11 mph 1026.9mb - 70f
8:20am 7 13 mph 1026.8mb - 70f
8:10am 7 11 mph 1026.8mb - 69f
8:00am 7 13 mph 1026.8mb 71f 69f
7:50am 7 11 mph 1026.8mb - 68f
7:40am 7 9 mph 1026.8mb - 67f
7:30am 4 9 mph 1026.6mb - 67f
7:20am 4 9 mph 1026.5mb - 66f
7:10am 4 7 mph 1026.4mb - 65f
7:00am 4 7 mph 1026.3mb 71f 65f
6:50am 4 7 mph 1026.4mb - 64f
6:40am 4 7 mph 1026.4mb - 64f
6:30am 4 7 mph 1026.4mb - 63f
6:20am 7 9 mph 1026.4mb - 63f
6:10am 7
mph
1026.3mb - 63f
6:00am 7 9 mph 1026.1mb 71f 63f
5:50am 7
mph
1026.1mb - 63f
5:40am 4 7 mph 1026.1mb - 63f
5:30am 4 9 mph 1026.1mb - 63f
5:20am 4 7 mph 1026mb - 63f
5:10am 7 9 mph 1025.8mb - 63f
5:00am 7 9 mph 1025.7mb 71f 64f
4:50am 4 7 mph 1025.8mb - 64f
4:40am 4 7 mph 1025.8mb - 64f
4:30am 7 9 mph 1025.8mb - 64f
4:20am 7 9 mph 1025.8mb - 64f
4:10am 7 9 mph 1025.8mb - 64f
4:00am 7 9 mph 1025.8mb 71f 65f
3:50am 4 9 mph 1025.7mb - 65f
3:40am 7
mph
1025.7mb - 65f
3:30am 7
mph
1025.6mb - 65f
3:20am 7 9 mph 1025.5mb - 65f
3:10am 4 7 mph 1025.4mb - 65f
3:00am 4 7 mph 1025.5mb 72f 65f
2:50am 7 9 mph 1025.4mb - 66f
2:40am 4 9 mph 1025.4mb - 66f
2:30am 7 9 mph 1025.5mb - 66f
2:20am 7 9 mph 1025.6mb - 66f
2:10am 7 9 mph 1025.6mb - 66f
2:00am 7 9 mph 1025.6mb 71f 67f
1:50am 7 11 mph 1025.6mb - 67f
1:40am 7 11 mph 1025.7mb - 67f
1:30am 7 11 mph 1025.7mb - 67f
1:20am 7 11 mph 1025.8mb - 67f
1:10am 7 11 mph 1025.8mb - 67f
1:00am 7 9 mph 1025.8mb 72f 67f
12:50am 9 13 mph 1025.8mb - 67f
12:40am 9 13 mph 1025.9mb - 67f
12:30am 7 9 mph 1026mb - 68f
12:20am 7 9 mph 1026mb - 68f
12:10am 9 11 mph 1026mb - 68f
12:00am 7 11 mph 1026.1mb 72f 68f
Sun 05/24 11:50pm 9 13 mph 1026.1mb - 68f
11:40pm 9 13 mph 1026.1mb - 69f
11:30pm 7 11 mph 1026.2mb - 69f
11:20pm 9 13 mph 1026.2mb - 69f
11:10pm 9 13 mph 1026.1mb - 70f
11:00pm 9 13 mph 1026.1mb 72f 70f
10:50pm 9 13 mph 1026.2mb - 70f
10:40pm 7 11 mph 1026.2mb - 71f
10:30pm 9 16 mph 1026.1mb - 71f
10:20pm 11 16 mph 1026mb - 71f
10:10pm 11 16 mph 1026mb - 71f
10:00pm 11 16 mph 1025.9mb 72f 71f
9:50pm 9 16 mph 1025.9mb - 71f
9:40pm 9 16 mph 1025.9mb - 72f
9:30pm 7 11 mph 1025.8mb - 72f
9:20pm 7 11 mph 1025.7mb - 72f
9:10pm 9 16 mph 1025.6mb - 72f
9:00pm 9 11 mph 1025.6mb 72f 73f
8:50pm 9 13 mph 1025.5mb - 73f
8:40pm 9 16 mph 1025.5mb - 73f
8:30pm 11 18 mph 1025.5mb - 74f
8:20pm 9 16 mph 1025.5mb - 74f
8:10pm 9 16 mph 1025.5mb - 74f
8:00pm 9 16 mph 1025.5mb 72f 74f
7:50pm 11 18 mph 1025.4mb - 75f
7:40pm 11 16 mph 1025.3mb - 75f
7:30pm 11 18 mph 1025.3mb - 76f
7:20pm 9 13 mph 1025.3mb - 76f
7:10pm 9 16 mph 1025.2mb - 77f
7:00pm 11 16 mph 1025.1mb 73f 77f
6:50pm 9 13 mph 1025mb - 77f
6:40pm 9 16 mph 1024.9mb - 78f
6:30pm 11 16 mph 1024.8mb - 78f
6:20pm 9 16 mph 1024.9mb - 78f
6:10pm 9 11 mph 1024.9mb - 78f
6:00pm 11 16 mph 1024.9mb 73f 78f
5:50pm 9 13 mph 1024.9mb - 78f
5:40pm 9 16 mph 1025mb - 78f
5:30pm 11 16 mph 1025.1mb - 78f
5:20pm 9 13 mph 1025.2mb - 78f
5:10pm 11 16 mph 1025.2mb - 78f
5:00pm 9 16 mph 1025.2mb 73f 79f
4:50pm 7 11 mph 1025.3mb - 79f
4:40pm 7 11 mph 1025.5mb - 79f
4:30pm 7 13 mph 1025.6mb - 79f
4:20pm 9 13 mph 1025.8mb - 78f
4:10pm 4 11 mph 1025.8mb - 78f
4:00pm 7 13 mph 1026mb 73f 78f
3:50pm 4 9 mph 1026.1mb - 78f
3:40pm 7 13 mph 1026.2mb - 78f
3:30pm 7 11 mph 1026.2mb - 78f
3:20pm 4 9 mph 1026.3mb - 77f
3:10pm 4 9 mph 1026.5mb - 78f
3:00pm 2 9 mph 1026.7mb 74f 78f
2:50pm 4 11 mph 1026.8mb - 77f
2:40pm 7 13 mph 1027mb - 78f
2:30pm 2 7 mph 1027.1mb - 77f
2:20pm 4 9 mph 1027.2mb - 77f
2:10pm 2 7 mph 1027.3mb - 77f
2:00pm 7 13 mph 1027.3mb 74f 76f
1:50pm 7 13 mph 1027.5mb - 76f
1:40pm 7 11 mph 1027.5mb - 76f
1:30pm 4 13 mph 1027.5mb - 76f
1:20pm 4 11 mph 1027.7mb - 76f
1:10pm 4 9 mph 1027.7mb - 76f
1:00pm 7 11 mph 1027.8mb 73f 76f
12:50pm 4 11 mph 1027.9mb - 75f
12:40pm 4 11 mph 1028mb - 75f
12:30pm 7 13 mph 1028.1mb - 75f
12:20pm 4 11 mph 1028.2mb - 74f
12:10pm 4 9 mph 1028.3mb - 74f
12:00pm 4 13 mph 1028.4mb 73f 74f
11:50am 4 9 mph 1028.6mb - 73f
11:40am 4 13 mph 1028.7mb - 73f
11:30am 4 11 mph 1028.7mb - 73f
11:20am 4 9 mph 1028.8mb - 72f
11:10am 4 11 mph 1028.9mb - 72f
11:00am 7 11 mph 1029mb 72f 72f
10:50am 4 9 mph 1029.2mb - 72f
10:40am 4 7 mph 1029.3mb - 71f
10:30am 4 7 mph 1029.3mb - 71f
10:20am 4 9 mph 1029.4mb - 71f
10:10am 4 9 mph 1029.5mb - 70f
10:00am 4 9 mph 1029.6mb 71f 70f
9:50am 9 11 mph 1029.7mb - 69f
9:40am 9 11 mph 1029.7mb - 69f
9:30am 9 11 mph 1029.7mb - 68f
9:20am 7 11 mph 1029.7mb - 68f
9:10am 7 11 mph 1029.6mb - 67f
9:00am 7 9 mph 1029.5mb 71f 67f
8:50am 7 9 mph 1029.5mb - 67f
8:40am 7 11 mph 1029.5mb - 66f
8:30am 7 11 mph 1029.4mb - 66f
8:20am 7 9 mph 1029.5mb - 65f
8:10am 7 9 mph 1029.4mb - 65f
8:00am 7
mph
1029.5mb 71f 64f
7:50am 7 9 mph 1029.4mb - 64f
7:40am 7 9 mph 1029.3mb - 63f
7:30am 7 11 mph 1029.2mb - 62f
7:20am 9 11 mph 1029.2mb - 62f
7:10am 7 9 mph 1029.2mb - 61f
7:00am 7 9 mph 1029.2mb 71f 61f
6:50am 7 9 mph 1029.1mb - 61f
6:40am 7 9 mph 1029.1mb - 60f
6:30am 9
mph
1029mb - 59f
6:20am 7 9 mph 1028.9mb - 59f
6:10am 7 9 mph 1028.8mb - 59f
6:00am 7
mph
1028.7mb 71f 59f
5:50am 7 9 mph 1028.6mb - 58f
5:40am 9
mph
1028.5mb - 58f
5:30am 7 9 mph 1028.5mb - 58f
5:20am 7 9 mph 1028.4mb - 59f
5:10am 7 9 mph 1028.4mb - 59f
5:00am 7
mph
1028.4mb 71f 59f
4:50am 7
mph
1028.5mb - 58f
4:40am 4 7 mph 1028.4mb - 59f
4:30am 7 9 mph 1028.5mb - 59f
4:20am 7
mph
1028.5mb - 59f
4:10am 7
mph
1028.5mb - 59f
4:00am 4 7 mph 1028.5mb 71f 60f
3:50am 4 7 mph 1028.5mb - 60f
3:40am 2 7 mph 1028.5mb - 60f
3:30am 4 7 mph 1028.5mb - 60f
3:20am 4 7 mph 1028.5mb - 60f
3:10am 4 7 mph 1028.5mb - 60f
3:00am 7 11 mph 1028.4mb 71f 60f
2:50am 7 9 mph 1028.3mb - 60f
2:40am 7 11 mph 1028.3mb - 60f
2:30am 7 9 mph 1028.4mb - 60f
2:20am 7 9 mph 1028.4mb - 60f
2:10am 7 11 mph 1028.3mb - 60f
2:00am 7 9 mph 1028.2mb 71f 60f
1:50am 7 11 mph 1028.3mb - 60f
1:40am 7 9 mph 1028.3mb - 60f
1:30am 7 9 mph 1028.4mb - 60f
1:20am 7 9 mph 1028.5mb - 60f
1:10am 7 9 mph 1028.5mb - 60f
1:00am 7 9 mph 1028.7mb 71f 60f
12:50am 7 9 mph 1028.7mb - 60f
12:40am 7 9 mph 1028.7mb - 60f
12:30am 7 9 mph 1028.8mb - 60f
12:20am 7 9 mph 1028.9mb - 61f
12:10am 7 9 mph 1029mb - 61f
12:00am 7 11 mph 1028.9mb 71f 61f
Sat 05/23 11:50pm 7 9 mph 1028.9mb - 61f
11:40pm 7 9 mph 1029mb - 61f
11:30pm 7 9 mph 1029mb - 61f
11:20pm 7 9 mph 1029.1mb - 61f
11:10pm 7 9 mph 1029.2mb - 61f
11:00pm 7 9 mph 1029.3mb 71f 62f
10:50pm 9 11 mph 1029.2mb - 62f
10:40pm 9
mph
1029.3mb - 62f
10:30pm 7 9 mph 1029.2mb - 62f
10:20pm 9 11 mph 1029.1mb - 62f
10:10pm 7 11 mph 1029.1mb - 62f
10:00pm 7 9 mph 1029.1mb 71f 62f
9:50pm 7 11 mph 1029.1mb - 62f
9:40pm 9 11 mph 1028.9mb - 62f
9:30pm 9 11 mph 1028.8mb - 62f
9:20pm 7 9 mph 1028.7mb - 63f
9:10pm 9 11 mph 1028.5mb - 63f
9:00pm 9 11 mph 1028.5mb 72f 63f
8:50pm 9 13 mph 1028.5mb - 63f
8:40pm 9 11 mph 1028.5mb - 64f
8:30pm 9 13 mph 1028.6mb - 64f
8:20pm 7 9 mph 1028.6mb - 64f
8:10pm 9 11 mph 1028.6mb - 65f
8:00pm 9 11 mph 1028.5mb 72f 65f
7:50pm 9 11 mph 1028.5mb - 65f
7:40pm 11 16 mph 1028.6mb - 66f
7:30pm 11 16 mph 1028.3mb - 67f
7:20pm 9 13 mph 1028.2mb - 67f
7:10pm 9 13 mph 1028.2mb - 68f
7:00pm 7 13 mph 1028.1mb 72f 69f
6:50pm 7 9 mph 1028mb - 69f
6:40pm 7 11 mph 1028mb - 69f
6:30pm 7 11 mph 1028mb - 69f
6:20pm 7 9 mph 1028.1mb - 69f
6:10pm 7 9 mph 1028.2mb - 70f
6:00pm 7 9 mph 1028.3mb 73f 70f
5:50pm 7 9 mph 1028.4mb - 70f
5:40pm 4 9 mph 1028.5mb - 70f
5:30pm  -  7 mph 1028.5mb - 70f
5:20pm 2 7 mph 1028.5mb - 70f
5:10pm 4 7 mph 1028.6mb - 69f
5:00pm 4 7 mph 1028.8mb 73f 69f
4:50pm 4 7 mph 1028.7mb - 69f
4:40pm 4 7 mph 1028.8mb - 69f
4:30pm 4 7 mph 1028.8mb - 68f
4:20pm 2 7 mph 1028.8mb - 68f
4:10pm 4 7 mph 1028.9mb - 68f
4:00pm 4 7 mph 1029mb 73f 68f
3:50pm 2 7 mph 1029.1mb - 68f
3:40pm 4 9 mph 1029.2mb - 67f
3:30pm 2 9 mph 1029.3mb - 67f
3:20pm 2 7 mph 1029.5mb - 67f
3:10pm 4 9 mph 1029.6mb - 67f
3:00pm 7 9 mph 1029.7mb 73f 67f
2:50pm 4 9 mph 1029.8mb - 67f
2:40pm 4 9 mph 1029.7mb - 66f
2:30pm 7 13 mph 1029.8mb - 66f
2:20pm 4 11 mph 1029.8mb - 66f
2:10pm 7 13 mph 1029.9mb - 66f
2:00pm 7 13 mph 1030mb 72f 66f
1:50pm 7 11 mph 1030mb - 66f
1:40pm 7 11 mph 1030mb - 66f
1:30pm 9 13 mph 1030.1mb - 66f
1:20pm 7 11 mph 1030mb - 65f
1:10pm 7 13 mph 1030.1mb - 65f
1:00pm 7 13 mph 1030.2mb 72f 65f
12:50pm 7 11 mph 1030.2mb - 65f
12:40pm 7 13 mph 1030.3mb - 65f
12:30pm 9 13 mph 1030.3mb - 65f
12:20pm 9 13 mph 1030.3mb - 65f
12:10pm 9 13 mph 1030.4mb - 65f
12:00pm 7 16 mph 1030.4mb 72f 64f
11:50am 9 13 mph 1030.4mb - 64f
11:40am 9 13 mph 1030.4mb - 64f
11:30am 9 16 mph 1030.4mb - 64f
11:20am 9 16 mph 1030.3mb - 64f
11:10am 9 13 mph 1030.3mb - 64f
11:00am 9 13 mph 1030.3mb 71f 64f
10:50am 11 16 mph 1030.2mb - 64f
10:40am 11 16 mph 1030.2mb - 65f
10:30am 7 16 mph 1030.1mb - 65f
10:20am 9 13 mph 1030.1mb - 65f
10:10am 7 13 mph 1029.9mb - 65f
10:00am 9 18 mph 1029.8mb 71f 65f
9:50am 11 16 mph 1029.8mb - 65f
9:40am 11 16 mph 1029.9mb - 65f
9:30am 9 16 mph 1029.8mb - 65f
9:20am 9 16 mph 1029.6mb - 65f
9:10am 9 16 mph 1029.5mb - 65f
9:00am 11 18 mph 1029.4mb 71f 65f
8:50am 13 18 mph 1029.2mb - 66f
8:40am 13 20 mph 1029mb - 66f
8:30am 13 20 mph 1028.8mb - 66f
8:20am 13 20 mph 1028.7mb - 66f
8:10am 11 20 mph 1028.5mb - 66f
8:00am 11 18 mph 1028.3mb 71f 66f
7:50am 11 18 mph 1028.2mb - 66f
7:40am 11 16 mph 1028mb - 67f
7:30am 7 11 mph 1027.8mb - 67f
7:20am 7 11 mph 1027.7mb - 67f
7:10am 7 11 mph 1027.6mb - 66f
7:00am 4 7 mph 1027.4mb 71f 65f
6:50am 4 7 mph 1027.2mb - 63f
6:40am 4 7 mph 1027mb - 62f
6:30am 4 7 mph 1026.7mb - 62f
6:20am 4
mph
1026.4mb - 62f
6:10am 4
mph
1026.3mb - 63f
6:00am 4 7 mph 1026.2mb 71f 63f
5:50am 7 9 mph 1026mb - 63f
5:40am 7 9 mph 1025.8mb - 62f
5:30am 4 9 mph 1025.5mb - 61f
5:20am 4 9 mph 1025.3mb - 60f
5:10am 4 7 mph 1025.2mb - 60f
5:00am 4 7 mph 1025mb 71f 60f
4:50am 4 7 mph 1024.8mb - 60f
4:40am 4
mph
1024.8mb - 59f
4:30am 4 9 mph 1024.6mb - 58f
4:20am 2 4 mph 1024.3mb - 58f
4:10am 2 4 mph 1024.2mb - 59f
4:00am 2 4 mph 1024.2mb 71f 59f
3:50am 2 4 mph 1024mb - 59f
3:40am 4 7 mph 1023.9mb - 59f
3:30am 4
mph
1023.8mb - 60f
3:20am 4 7 mph 1023.6mb - 60f
3:10am 4 7 mph 1023.5mb - 60f
3:00am 4 7 mph 1023.4mb 71f 61f
2:50am 4 7 mph 1023.3mb - 61f
2:40am 4 7 mph 1023.3mb - 61f
2:30am 2 4 mph 1023.3mb - 61f
2:20am 4 7 mph 1023.3mb - 62f
2:10am 4 7 mph 1023.2mb - 62f
2:00am 4 7 mph 1023.3mb 71f 62f
1:50am 4 7 mph 1023.3mb - 62f
1:40am 7 9 mph 1023.4mb - 62f
1:30am 7 9 mph 1023.3mb - 62f
1:20am 4 7 mph 1023.3mb - 62f
1:10am 4 7 mph 1023.2mb - 62f
1:00am 4 7 mph 1023.3mb 71f 63f
12:50am 4 7 mph 1023.3mb - 63f
12:40am 4 7 mph 1023.3mb - 63f
12:30am 4 7 mph 1023.3mb - 63f
12:20am 4 7 mph 1023.3mb - 63f
12:10am 4 7 mph 1023.3mb - 63f
12:00am 4 7 mph 1023.3mb 71f 63f
Fri 05/22 11:50pm 4 7 mph 1023.2mb - 63f
11:40pm 4 7 mph 1023.1mb - 64f
11:30pm 4 7 mph 1023.1mb - 64f
11:20pm 4 7 mph 1023.1mb - 64f
11:10pm 4 7 mph 1023mb - 64f
11:00pm 4 7 mph 1022.8mb 71f 65f
10:50pm 4 7 mph 1022.7mb - 65f
10:40pm 4 7 mph 1022.6mb - 65f
10:30pm 4
mph
1022.5mb - 66f
10:20pm 4
mph
1022.5mb - 66f
10:10pm 4 7 mph 1022.3mb - 66f
10:00pm 4 7 mph 1022.1mb 72f 67f
9:50pm 4 7 mph 1022.1mb - 67f
9:40pm 4 7 mph 1022mb - 68f
9:30pm 4
mph
1021.9mb - 68f
9:20pm 2 4 mph 1021.8mb - 69f
9:10pm 2 4 mph 1021.6mb - 69f
9:00pm 2 4 mph 1021.6mb 71f 69f
8:50pm 2 4 mph 1021.5mb - 69f
8:40pm 2 4 mph 1021.5mb - 70f
8:30pm 2 7 mph 1021.4mb - 70f
8:20pm 4 7 mph 1021.3mb - 70f
8:10pm 2 7 mph 1021.2mb - 71f
8:00pm 2 7 mph 1021.1mb 71f 71f
7:50pm 4 9 mph 1020.9mb - 72f
7:40pm 4 9 mph 1020.8mb - 72f
7:30pm 7 11 mph 1020.7mb - 72f
7:20pm 4 9 mph 1020.5mb - 72f
7:10pm 7 11 mph 1020.5mb - 72f
7:00pm 7 13 mph 1020.4mb 72f 72f
6:50pm 4 11 mph 1020.3mb - 72f
6:40pm 4 13 mph 1020.2mb - 72f
6:30pm 4 9 mph 1020.1mb - 72f
6:20pm 4 9 mph 1020.1mb - 72f
6:10pm 4 7 mph 1020.1mb - 71f
6:00pm 4 7 mph 1020mb 72f 71f
5:50pm 7
mph
1020mb - 71f
5:40pm 7 9 mph 1020.1mb - 70f
5:30pm 7 9 mph 1020.1mb - 70f
5:20pm 7 9 mph 1020.1mb - 70f
5:10pm 7 11 mph 1020.1mb - 70f
5:00pm 7 9 mph 1020.1mb 72f 69f
4:50pm 7 9 mph 1020mb - 69f
4:40pm 7 9 mph 1020mb - 69f
4:30pm 7 9 mph 1020mb - 69f
4:20pm 9 11 mph 1019.9mb - 69f
4:10pm 9 13 mph 1020mb - 69f
4:00pm 7 9 mph 1020mb 72f 69f
3:50pm 7 9 mph 1020mb - 68f
3:40pm 7 13 mph 1020mb - 68f
3:30pm 7 11 mph 1020.1mb - 68f
3:20pm 9 11 mph 1020.1mb - 67f
3:10pm 9 11 mph 1020.1mb - 67f
3:00pm 4 9 mph 1020.1mb 71f 67f
2:50pm 4 9 mph 1020mb - 67f
2:40pm 4 9 mph 1020mb - 67f
2:30pm 4 7 mph 1020mb - 66f
2:20pm 7 9 mph 1019.9mb - 66f
2:10pm 4 9 mph 1019.9mb - 66f
2:00pm 7 11 mph 1019.8mb 72f 66f
1:50pm 7 9 mph 1019.8mb - 66f
1:40pm 4 7 mph 1019.8mb - 65f
1:30pm 7 11 mph 1019.9mb - 65f
1:20pm 7 13 mph 1019.9mb - 65f
1:10pm 7 13 mph 1019.8mb - 65f
1:00pm 7 13 mph 1019.8mb 72f 64f
12:50pm 7 11 mph 1019.7mb - 64f
12:40pm 7 18 mph 1019.7mb - 64f
12:30pm 7 11 mph 1019.7mb - 64f
12:20pm 9 16 mph 1019.6mb - 64f
12:10pm 7 11 mph 1019.8mb - 63f
12:00pm 7 11 mph 1019.8mb 71f 63f
11:50am 9 16 mph 1019.8mb - 63f
11:40am 7 13 mph 1019.8mb - 63f
11:30am 9 16 mph 1019.8mb - 63f
11:20am 9 13 mph 1019.7mb - 63f
11:10am 9 16 mph 1019.5mb - 62f
11:00am 9 13 mph 1019.5mb 71f 62f
10:50am 9 13 mph 1019.4mb - 62f
10:40am 9 16 mph 1019.3mb - 62f
10:30am 9 13 mph 1019.2mb - 62f
10:20am 11 16 mph 1019.1mb - 62f
10:10am 9 13 mph 1018.9mb - 61f
10:00am 11 16 mph 1018.8mb 71f 61f
9:50am 9 16 mph 1018.8mb - 60f
9:40am 9 16 mph 1018.8mb - 60f
9:20am 11 13 mph 1018.8mb - 60f
9:10am 11 16 mph 1018.7mb - 59f
9:00am 9 16 mph 1018.6mb 71f 59f
8:50am 11 16 mph 1018.5mb - 59f
8:40am 13 18 mph 1018.6mb - 59f
8:30am 13 18 mph 1018.5mb - 58f
8:20am 13 18 mph 1018.3mb - 58f
8:10am 13 18 mph 1018.1mb - 58f
8:00am 16 20 mph 1018mb 71f 58f
7:50am 16 22 mph 1017.9mb - 58f
7:40am 16 22 mph 1017.6mb - 58f
7:30am 16 22 mph 1017.5mb - 57f
7:20am 16 22 mph 1017.4mb - 57f
7:10am 16 20 mph 1017.2mb - 57f
7:00am 13 20 mph 1017.1mb 70f 57f
6:50am 16 20 mph 1017mb - 57f
6:40am 16 20 mph 1016.8mb - 57f
6:30am 13 20 mph 1016.6mb - 57f
6:20am 16 22 mph 1016.5mb - 57f
6:10am 16 22 mph 1016.4mb - 57f
6:00am 16 20 mph 1016.3mb 70f 57f
5:50am 16 22 mph 1016.1mb - 57f
5:40am 16 20 mph 1016mb - 57f
5:30am 13 20 mph 1015.8mb - 57f
5:20am 13 18 mph 1015.6mb - 57f
5:10am 13 22 mph 1015.3mb - 57f
5:00am 13 20 mph 1015.2mb 71f 57f
4:50am 13 20 mph 1015mb - 57f
4:40am 13 22 mph 1014.9mb - 57f
4:30am 13 22 mph 1014.7mb - 57f
4:20am 13 20 mph 1014.4mb - 57f
4:10am 13 22 mph 1014.4mb - 57f
4:00am 11 20 mph 1014.4mb 71f 57f
3:50am 11 18 mph 1014.3mb - 57f
3:40am 9 13 mph 1014.1mb - 56f
3:30am 9 16 mph 1013.9mb - 57f
3:20am 11 18 mph 1013.6mb - 57f
3:10am 16 20 mph 1013.3mb - 57f
3:00am 13 18 mph 1013.2mb 71f 57f
2:50am 13 20 mph 1013mb - 57f
2:40am 13 20 mph 1013mb - 57f
2:30am 16 20 mph 1013mb - 58f
2:20am 16 20 mph 1012.9mb - 58f
2:10am 16 20 mph 1013mb - 58f
2:00am 16 22 mph 1012.9mb 71f 58f
1:50am 16 20 mph 1012.9mb - 58f
1:40am 16 22 mph 1012.9mb - 58f
1:30am 16 20 mph 1012.9mb - 58f
1:20am 16 25 mph 1012.9mb - 58f
1:10am 13 16 mph 1013.1mb - 58f
1:00am 16 20 mph 1013.1mb 71f 58f
12:50am 16 20 mph 1013.1mb - 58f
12:40am 16 22 mph 1013.1mb - 58f
12:30am 13 20 mph 1012.9mb - 58f
12:20am 13 20 mph 1012.6mb - 58f
12:10am 16 20 mph 1012.7mb - 58f
12:00am 16 22 mph 1012.7mb 71f 58f
Thu 05/21 11:50pm 13 20 mph 1012.6mb - 58f
11:40pm 16 20 mph 1012.4mb - 58f
11:30pm 13 20 mph 1012.2mb - 58f
11:20pm 13 18 mph 1011.9mb - 59f
11:10pm 13 20 mph 1011.9mb - 59f
11:00pm 11 18 mph 1011.8mb 71f 59f
10:50pm 13 18 mph 1011.6mb - 59f
10:40pm 13 18 mph 1011.4mb - 59f
10:30pm 13 20 mph 1011.3mb - 59f
10:20pm 13 20 mph 1011.2mb - 60f
10:10pm 13 20 mph 1011mb - 60f
10:00pm 11 18 mph 1010.7mb 71f 60f
9:50pm 11 18 mph 1010.6mb - 60f
9:40pm 11 16 mph 1010.6mb - 59f
9:30pm 13 18 mph 1010.4mb - 59f
9:20pm 11 18 mph 1010.4mb - 59f
9:10pm 13 20 mph 1010.3mb - 59f
9:00pm 16 22 mph 1010.4mb 71f 59f
8:50pm 18 27 mph 1010.3mb - 59f
8:40pm 16 22 mph 1010.3mb - 59f
8:30pm 20 27 mph 1010.4mb - 59f
8:20pm 18 27 mph 1010.3mb - 60f
8:10pm 18 27 mph 1010.4mb - 60f
8:00pm 16 20 mph 1010.2mb 71f 60f
7:50pm 16 22 mph 1009.8mb - 60f
7:40pm 18 25 mph 1009.4mb - 60f
7:30pm 13 22 mph 1009.1mb - 60f
7:20pm 16 25 mph 1009.1mb - 60f
7:10pm 16 25 mph 1009mb - 60f
7:00pm 18 25 mph 1008.8mb 71f 60f
6:50pm 16 22 mph 1008.7mb - 60f
6:40pm 16 22 mph 1008.6mb - 60f
6:30pm 16 22 mph 1008.4mb - 60f
6:20pm 16 20 mph 1008.4mb - 60f
6:10pm 16 22 mph 1008.3mb - 60f
6:00pm 16 22 mph 1008.2mb 72f 61f
5:50pm 13 22 mph 1008.2mb - 61f
5:40pm 16 22 mph 1008.2mb - 61f
5:30pm 13 20 mph 1008.2mb - 61f
5:20pm 11 22 mph 1008.1mb - 61f
5:10pm 13 18 mph 1008.2mb - 61f
5:00pm 13 22 mph 1008.4mb 71f 62f
4:50pm 11 18 mph 1007.8mb - 62f
4:40pm 13 22 mph 1007.5mb - 63f
4:30pm 13 22 mph 1007.5mb - 63f
4:20pm 16 20 mph 1007.5mb - 64f
4:10pm 13 18 mph 1007.7mb - 64f
4:00pm 13 20 mph 1007.6mb 72f 65f
3:50pm 13 18 mph 1007.6mb - 66f
3:40pm 9 13 mph 1007.9mb - 67f
3:30pm 7 11 mph 1007.9mb - 67f
3:20pm 7 9 mph 1008.1mb - 67f
3:10pm 4 11 mph 1008.3mb - 68f
3:00pm 4 9 mph 1008.5mb 72f 67f
2:50pm 9 13 mph 1008.4mb - 68f
2:40pm 11 16 mph 1008.5mb - 68f
2:30pm 9 13 mph 1008.7mb - 68f